OPS 4682 DEB, 1389

Orbit data source: Space-Track

OPS 4682 DEB, 1389 is space debris in LEO originally from a launch on Sat, 03 Apr 1965 UTC launched from the Air Force Western Test Range (AFWTR). Debris objects in space refer to the collection of defunct objects orbiting the Earth. Examples of debris include non-operational satellites, rocket bodies, and fragments generated from explosions, collisions, or faulty payload assembly.

Loading next visibility...
OPS 4682 DEB details
Identifier
1389, 1965-027D
Orbit
LEO
Last TLE update7 hours ago
Origin
Flag of USUSAF SSD (US)
ManufacturerUnknown
MissionSpacecraft
Bus & MotorUnknown
Mass7 kg wet, 7 kg dry
Launch date (UTC)
1965-04-03 (60 years ago)
Launch vehicleUnknown
Launch site
Air Force Western Test Range (AFWTR)
Object type
Payload
Rocket body
Debris
Shape & HBRHalf Cyl, 2 m
Radar Cross Section2.370 m², Medium (>0.1 m² and < 1m²)

Expand to show TLE details & history

TLE from 7 hours ago
0 OPS 4682 DEB
1 01389U 65027D   25044.53579133  .00000635  00000-0  17003-2 0  9999
2 01389  89.8363 226.4059 0024221  38.8369  21.0033 13.13940717846492
Epoch: 2025-02-13T12:51Z
Definitive object data (Epoch: 2025-02-13T12:51:32.37Z)
Latitude60.02787°
Longitude-110.00706°
Altitude1,201.081 km
Speed7.267 km/s
True Right ascension15h 06m 45s
True Declination59° 53' 15"
Sunlit
Object was in daylight at TLE epoch
Visualization TLE readout
Latitude-89.28143°
Longitude82.80662°
Altitude1,248.309 km
Speed7.225 km/s
Apparent Right ascension09h 55m 44s
Apparent Declination-67° 14' 17"
Sunlit
Object is in daylight
Visualization observer readout
Local Sidereal Time22:00:13
Azimuth179.055° S
Elevation-62.671°
Doppler factor1
Orbital elements
Apogee altitude1,223.423 km
Perigee altitude1,186.689 km
Semi-major axis7,583.193 km
Eccentricity0.0024221
Inclination89.8363°
RAAN226.4059°
Arg. of periapsis38.8369°
True anomaly21.10306°
Mean anomaly21.0033°
Eccentric anomaly21.05315°
Mean motion3.28674 °/min
BSTAR0.0017003
Orbital period109.53 mins
Loading maneuver chart data...
Loading historical data...
Loading historical data...
Loading historical data...
Loading historical data...
Loading historical data...
Loading historical data...
Loading historical data...

OPS 4682 DEB Visibility forecast

Observer location: undefined°, undefined

Span
Click to sort rows by Start time (UTC) header in descending order
Start Az.
Max El. time (UTC)
Max El. Az.
Max El.
End time (UTC)
End Az.
12 mins2025-02-14 00:08:22.587Z8.346° NNE2025-02-14 00:13:22.587Z60.664° ENE43.293°2025-02-14 00:20:22.587Z174.595° S
7 mins2025-02-14 01:59:22.587Z318.711° NNW2025-02-14 02:02:22.587Z289.554° WNW18.773°2025-02-14 02:06:22.587Z252.309° W
6 mins2025-02-14 10:40:22.587Z90.086° ESE2025-02-14 10:42:22.587Z71.559° E15.384°2025-02-14 10:46:22.587Z36.557° NE
12 mins2025-02-14 12:25:22.587Z178.684° S2025-02-14 12:31:22.587Z329.185° NNW44.641°2025-02-14 12:37:22.587Z356.853° N
5 mins2025-02-14 14:19:22.587Z268.117° W2025-02-14 14:21:22.587Z285.627° WNW13.043°2025-02-14 14:24:22.587Z311.223° NW
|